TimeEDT,TemperatureF,Dew PointF,Humidity,Sea Level PressureIn,VisibilityMPH,Wind Direction,Wind SpeedMPH,Gust SpeedMPH,PrecipitationIn,Events,Conditions,WindDirDegrees,DateUTC
12:15 AM,26.6,26.6,100,29.95,0.8,ENE,19.6,26.5,N/A,,Overcast,70,2013-04-12 04:15:00
12:35 AM,26.6,26.6,100,29.92,1.0,ENE,23.0,29.9,N/A,,Overcast,70,2013-04-12 04:35:00
12:55 AM,26.6,26.6,100,29.91,1.2,ENE,19.6,27.6,N/A,,Overcast,70,2013-04-12 04:55:00
1:15 AM,26.6,26.6,100,29.89,1.0,ENE,19.6,28.8,N/A,,Overcast,70,2013-04-12 05:15:00
1:35 AM,26.6,26.6,100,29.89,1.0,ENE,21.9,32.2,N/A,,Overcast,70,2013-04-12 05:35:00
1:55 AM,26.6,24.8,93,29.87,1.2,ENE,24.2,33.4,N/A,,Overcast,70,2013-04-12 05:55:00
2:15 AM,26.6,24.8,93,29.85,1.0,ENE,19.6,32.2,N/A,,Overcast,70,2013-04-12 06:15:00
2:35 AM,26.6,24.8,93,29.83,1.5,ENE,20.7,29.9,N/A,,Overcast,70,2013-04-12 06:35:00
2:55 AM,24.8,23.0,93,29.81,1.5,ENE,24.2,32.2,N/A,,Overcast,70,2013-04-12 06:55:00
3:15 AM,24.8,24.8,100,29.80,2.0,ENE,17.3,28.8,N/A,,Overcast,70,2013-04-12 07:15:00
3:35 AM,24.8,24.8,100,29.79,2.0,ENE,23.0,27.6,N/A,,Overcast,60,2013-04-12 07:35:00
3:55 AM,24.8,24.8,100,29.80,2.0,ENE,16.1,25.3,N/A,,Overcast,60,2013-04-12 07:55:00
4:15 AM,24.8,24.8,100,29.79,1.5,ENE,18.4,23.0,N/A,,Overcast,60,2013-04-12 08:15:00
4:35 AM,24.8,24.8,100,29.77,2.0,ENE,17.3,23.0,N/A,,Overcast,60,2013-04-12 08:35:00
4:55 AM,24.8,24.8,100,29.77,1.8,ENE,15.0,-,0.01,,Overcast,70,2013-04-12 08:55:00
5:15 AM,24.8,23.0,93,29.76,1.0,ENE,16.1,21.9,N/A,,Overcast,60,2013-04-12 09:15:00
5:35 AM,24.8,23.0,93,29.75,0.8,ENE,13.8,-,N/A,,Overcast,60,2013-04-12 09:35:00
5:55 AM,24.8,23.0,93,29.76,0.8,ENE,13.8,19.6,0.01,,Overcast,60,2013-04-12 09:55:00
6:15 AM,24.8,23.0,93,29.75,1.0,ENE,18.4,21.9,N/A,,Overcast,70,2013-04-12 10:15:00
6:35 AM,24.8,23.0,93,29.74,0.8,ENE,16.1,23.0,N/A,,Overcast,60,2013-04-12 10:35:00
6:55 AM,24.8,23.0,93,29.72,0.5,NE,18.4,21.9,0.01,,Overcast,50,2013-04-12 10:55:00
7:15 AM,24.8,23.0,93,29.72,0.2,NE,17.3,21.9,N/A,,Overcast,50,2013-04-12 11:15:00
7:35 AM,24.8,23.0,93,29.72,0.8,ENE,15.0,-,N/A,,Overcast,60,2013-04-12 11:35:00
7:55 AM,24.8,24.8,100,29.71,1.2,ENE,13.8,-,N/A,,Overcast,60,2013-04-12 11:55:00
8:15 AM,24.8,24.8,100,29.71,1.2,ENE,12.7,-,N/A,,Overcast,60,2013-04-12 12:15:00
8:35 AM,24.8,23.0,93,29.71,1.5,ENE,11.5,-,N/A,,Overcast,60,2013-04-12 12:35:00
8:55 AM,26.6,24.8,93,29.70,1.2,ENE,13.8,-,N/A,,Overcast,60,2013-04-12 12:55:00
9:15 AM,26.6,24.8,93,29.69,0.8,ENE,15.0,-,N/A,,Overcast,60,2013-04-12 13:15:00
9:35 AM,26.6,24.8,93,29.68,3.0,NE,18.4,-,N/A,,Overcast,50,2013-04-12 13:35:00
9:55 AM,26.6,24.8,93,29.68,5.0,ENE,15.0,18.4,N/A,,Overcast,70,2013-04-12 13:55:00
10:15 AM,26.6,24.8,93,29.67,4.0,ENE,13.8,19.6,N/A,,Overcast,60,2013-04-12 14:15:00
10:35 AM,28.4,24.8,86,29.66,3.0,ENE,13.8,21.9,N/A,,Overcast,60,2013-04-12 14:35:00
10:55 AM,28.4,24.8,86,29.66,5.0,ENE,15.0,25.3,N/A,,Overcast,70,2013-04-12 14:55:00
11:15 AM,28.4,24.8,86,29.66,6.0,ENE,13.8,24.2,N/A,,Overcast,60,2013-04-12 15:15:00
11:35 AM,28.4,26.6,93,29.67,9.0,ENE,11.5,-,N/A,,Overcast,70,2013-04-12 15:35:00
11:55 AM,28.4,26.6,93,29.67,1.0,ENE,12.7,18.4,N/A,,Overcast,70,2013-04-12 15:55:00
12:15 PM,28.4,26.6,93,29.67,3.0,East,16.1,-,N/A,,Overcast,80,2013-04-12 16:15:00
12:35 PM,28.4,28.4,100,29.67,1.2,East,15.0,-,N/A,,Overcast,80,2013-04-12 16:35:00
12:55 PM,30.2,28.4,93,29.68,3.0,East,11.5,18.4,N/A,,Overcast,80,2013-04-12 16:55:00
1:15 PM,30.2,28.4,93,29.68,4.0,East,13.8,17.3,N/A,,Overcast,90,2013-04-12 17:15:00
1:35 PM,30.2,28.4,93,29.67,3.0,East,13.8,20.7,N/A,,Overcast,80,2013-04-12 17:35:00
1:55 PM,30.2,28.4,93,29.66,3.0,East,19.6,24.2,N/A,,Overcast,80,2013-04-12 17:55:00
2:15 PM,30.2,28.4,93,29.65,3.0,East,13.8,19.6,N/A,,Overcast,80,2013-04-12 18:15:00
2:35 PM,30.2,28.4,93,29.65,4.0,ENE,15.0,-,N/A,,Overcast,70,2013-04-12 18:35:00
2:55 PM,30.2,28.4,93,29.65,5.0,East,12.7,19.6,N/A,,Overcast,80,2013-04-12 18:55:00
3:15 PM,30.2,28.4,93,29.65,10.0,East,12.7,-,N/A,,Overcast,80,2013-04-12 19:15:00
3:35 PM,30.2,28.4,93,29.66,10.0,East,11.5,18.4,N/A,,Overcast,90,2013-04-12 19:35:00
3:55 PM,32.0,28.4,87,29.66,10.0,East,10.4,18.4,N/A,,Overcast,80,2013-04-12 19:55:00
4:15 PM,32.0,28.4,87,29.66,10.0,East,11.5,-,N/A,,Overcast,80,2013-04-12 20:15:00
4:35 PM,30.2,28.4,93,29.66,9.0,East,10.4,-,N/A,,Overcast,80,2013-04-12 20:35:00
4:55 PM,30.2,28.4,93,29.66,10.0,ENE,9.2,-,N/A,,Overcast,70,2013-04-12 20:55:00
5:15 PM,30.2,28.4,93,29.66,9.0,ENE,9.2,-,N/A,,Overcast,70,2013-04-12 21:15:00
5:35 PM,30.2,28.4,93,29.66,10.0,East,10.4,-,N/A,,Overcast,80,2013-04-12 21:35:00
5:55 PM,32.0,28.4,87,29.66,8.0,ENE,9.2,-,N/A,,Overcast,70,2013-04-12 21:55:00
6:15 PM,30.2,28.4,93,29.67,10.0,East,8.1,-,N/A,,Overcast,80,2013-04-12 22:15:00
6:35 PM,30.2,28.4,93,29.67,10.0,ENE,8.1,-,N/A,,Overcast,60,2013-04-12 22:35:00
6:55 PM,30.2,28.4,93,29.67,5.0,ENE,6.9,-,N/A,,Overcast,70,2013-04-12 22:55:00
7:15 PM,30.2,28.4,93,29.68,1.8,East,4.6,-,N/A,,Overcast,80,2013-04-12 23:15:00
7:35 PM,30.2,30.2,100,29.68,1.2,East,5.8,-,0.01,,Overcast,80,2013-04-12 23:35:00
7:55 PM,30.2,30.2,100,29.68,1.2,Calm,Calm,-,0.01,,Overcast,0,2013-04-12 23:55:00
8:15 PM,30.2,30.2,100,29.68,1.5,East,5.8,-,N/A,,Overcast,100,2013-04-13 00:15:00
8:35 PM,30.2,28.4,93,29.68,2.0,Calm,Calm,-,N/A,,Overcast,0,2013-04-13 00:35:00
8:55 PM,30.2,30.2,100,29.68,3.0,East,5.8,-,N/A,,Overcast,80,2013-04-13 00:55:00
9:15 PM,30.2,30.2,100,29.68,5.0,East,3.5,-,0.01,,Overcast,80,2013-04-13 01:15:00
9:35 PM,30.2,30.2,100,29.69,3.0,Calm,Calm,-,0.01,,Overcast,0,2013-04-13 01:35:00
9:55 PM,30.2,30.2,100,29.69,4.0,ENE,5.8,-,0.01,,Overcast,60,2013-04-13 01:55:00
10:15 PM,30.2,30.2,100,29.69,8.0,NE,4.6,-,N/A,,Overcast,50,2013-04-13 02:15:00
10:35 PM,28.4,28.4,100,29.69,5.0,NNE,5.8,-,N/A,,Overcast,20,2013-04-13 02:35:00
10:55 PM,28.4,28.4,100,29.69,7.0,NNE,5.8,-,N/A,,Overcast,30,2013-04-13 02:55:00
11:15 PM,28.4,28.4,100,29.69,7.0,NNE,4.6,-,N/A,,Overcast,20,2013-04-13 03:15:00
11:35 PM,28.4,26.6,93,29.69,6.0,NNE,4.6,-,N/A,,Overcast,20,2013-04-13 03:35:00
11:55 PM,28.4,26.6,93,29.68,7.0,NNE,4.6,-,N/A,,Overcast,20,2013-04-13 03:55:00